Main page
Satellite images Climate Cyclones Lightning AirportsFAQ Languages Contact Newsletter About
Weather : Europe Africa North America South America Asia Australia-Oceania Others

1217, Macau, Macau International Airport

latitude: , longitude: China, elevation: 22-10N m


METAR: VMMC 200200Z 05007KT 9999 FEW022 30/25 Q1010 NOSIG